Find Starlink 11550

NORAD ID: 63052 Int'l Des: 2025-035 Owner: SPXS Country: US Constellation: starlink operational
LEOCIRCULAR

Live Position

Loading 3D Globe...

About Starlink 11550

Description loading...

Upcoming Passes

Passes for default location (London). Set your location on the main map for personalized predictions.

Altitude History

Loading altitude history...

Two-Line Element Set

1 63052U 25035A 26124.13666657 .00187726 00000-0 14316-2 0 9994
2 63052 43.0021 40.9138 0002441 282.7754 77.2841 15.70873500 69942
Epoch: May 4, 2026 • Age: 17 hours

Current Status

Altitude 354.8 km
Velocity 7.70 km/s
Sub-Earth Point 2.19°N, 124.86°W
Launch Date Feb 21, 2025
Age 1.1 years
Type internet

Technical Details

Classification Payload
Mass 960.00 kg
Dry Mass 910.00 kg
Total Mass 960.00 kg
Length 0.30 m
Diameter 4.10 m
Span 29.00 m
Shape Box + pan
Manufacturer SPXS
Bus Type Starlink V2MD
Phase Status In Orbit
Owner/State SPXS/US

Most Searched